Time,TemperatureF,DewpointF,PressureIn,WindDirection,WindDirectionDegrees,WindSpeedMPH,WindSpeedGustMPH,Humidity,HourlyPrecipIn,Conditions,Clouds,dailyrainin,SoftwareType,DateUTC
2013-07-19 00:01:00,71.5,55.0,30.17,SSE,158,1.6,1.6,56,0.00,,---,0.00,VWS V14.01,2013-07-19 06:01:00,
2013-07-19 00:06:00,71.3,54.8,30.17,SSE,158,0.9,0.9,56,0.00,,---,0.00,VWS V14.01,2013-07-19 06:06:00,
2013-07-19 00:11:00,71.3,54.8,30.17,South,180,0.4,0.4,56,0.00,,---,0.00,VWS V14.01,2013-07-19 06:11:00,
2013-07-19 00:16:00,71.3,55.3,30.18,SSE,158,1.3,1.3,57,0.00,,---,0.00,VWS V14.01,2013-07-19 06:16:00,
2013-07-19 00:21:00,71.3,55.3,30.17,South,180,0.4,0.4,57,0.00,,---,0.00,VWS V14.01,2013-07-19 06:21:00,
2013-07-19 00:26:00,71.1,55.6,30.17,SSE,158,1.8,1.8,58,0.00,,---,0.00,VWS V14.01,2013-07-19 06:26:00,
2013-07-19 00:31:00,71.1,55.6,30.17,SSE,158,1.1,1.1,58,0.00,,---,0.00,VWS V14.01,2013-07-19 06:31:00,
2013-07-19 00:36:00,71.1,55.6,30.17,SSE,158,0.9,0.9,58,0.00,,---,0.00,VWS V14.01,2013-07-19 06:36:00,
2013-07-19 00:41:00,70.9,55.4,30.17,SSE,158,0.0,0.0,58,0.00,,---,0.00,VWS V14.01,2013-07-19 06:41:00,
2013-07-19 00:46:00,70.9,55.4,30.17,SE,135,0.2,0.2,58,0.00,,---,0.00,VWS V14.01,2013-07-19 06:46:00,
2013-07-19 00:51:00,70.9,55.4,30.17,ESE,112,0.2,0.2,58,0.00,,---,0.00,VWS V14.01,2013-07-19 06:51:00,
2013-07-19 00:56:00,70.7,55.2,30.17,SE,135,0.4,0.4,58,0.00,,---,0.00,VWS V14.01,2013-07-19 06:56:00,
2013-07-19 01:01:00,70.7,55.7,30.17,SE,135,0.7,0.7,59,0.00,,---,0.00,VWS V14.01,2013-07-19 07:01:00,
2013-07-19 01:06:00,70.7,55.2,30.17,SE,135,0.0,0.0,58,0.00,,---,0.00,VWS V14.01,2013-07-19 07:06:00,
2013-07-19 01:11:00,70.6,55.6,30.17,SE,135,0.0,0.0,59,0.00,,---,0.00,VWS V14.01,2013-07-19 07:11:00,
2013-07-19 01:16:00,70.4,54.9,30.17,SE,135,0.7,0.7,58,0.00,,---,0.00,VWS V14.01,2013-07-19 07:16:00,
2013-07-19 01:21:00,70.4,54.5,30.17,SE,135,0.0,0.0,57,0.00,,---,0.00,VWS V14.01,2013-07-19 07:21:00,
2013-07-19 01:26:00,70.2,54.8,30.17,SSE,158,0.7,0.7,58,0.00,,---,0.00,VWS V14.01,2013-07-19 07:26:00,
2013-07-19 01:31:00,70.2,54.8,30.17,SSE,158,0.2,0.2,58,0.00,,---,0.00,VWS V14.01,2013-07-19 07:31:00,
2013-07-19 01:36:00,70.2,54.8,30.17,SSE,158,0.4,0.4,58,0.00,,---,0.00,VWS V14.01,2013-07-19 07:36:00,
2013-07-19 01:41:00,70.2,54.8,30.16,SSE,158,0.4,0.4,58,0.00,,---,0.00,VWS V14.01,2013-07-19 07:41:00,
2013-07-19 01:46:00,70.0,54.6,30.17,SSE,158,0.0,0.0,58,0.00,,---,0.00,VWS V14.01,2013-07-19 07:46:00,
2013-07-19 01:51:00,70.0,54.6,30.17,SSE,158,0.4,0.4,58,0.00,,---,0.00,VWS V14.01,2013-07-19 07:51:00,
2013-07-19 01:56:00,70.0,55.0,30.17,SSE,158,0.0,0.0,59,0.00,,---,0.00,VWS V14.01,2013-07-19 07:56:00,
2013-07-19 02:01:00,70.0,55.0,30.17,SSW,202,1.3,1.3,59,0.00,,---,0.00,VWS V14.01,2013-07-19 08:01:00,
2013-07-19 02:06:00,70.2,55.7,30.17,SW,225,1.8,1.8,60,0.00,,---,0.00,VWS V14.01,2013-07-19 08:06:00,
2013-07-19 02:11:00,70.2,55.7,30.17,SW,225,2.0,2.0,60,0.00,,---,0.00,VWS V14.01,2013-07-19 08:11:00,
2013-07-19 02:16:00,70.2,55.7,30.17,SSW,202,0.2,0.2,60,0.00,,---,0.00,VWS V14.01,2013-07-19 08:16:00,
2013-07-19 02:21:00,69.8,55.8,30.17,South,180,1.1,1.1,61,0.00,,---,0.00,VWS V14.01,2013-07-19 08:21:00,
2013-07-19 02:26:00,69.8,55.8,30.17,SSW,202,0.4,0.4,61,0.00,,---,0.00,VWS V14.01,2013-07-19 08:26:00,
2013-07-19 02:31:00,69.7,56.1,30.17,SSW,202,1.1,1.1,62,0.00,,---,0.00,VWS V14.01,2013-07-19 08:31:00,
2013-07-19 02:36:00,69.5,56.4,30.17,South,180,1.8,1.8,63,0.00,,---,0.00,VWS V14.01,2013-07-19 08:36:00,
2013-07-19 02:41:00,69.3,56.2,30.18,SSW,202,0.4,0.4,63,0.00,,---,0.00,VWS V14.01,2013-07-19 08:41:00,
2013-07-19 02:46:00,69.1,56.4,30.17,South,180,3.1,3.1,64,0.00,,---,0.00,VWS V14.01,2013-07-19 08:46:00,
2013-07-19 02:51:00,68.9,56.2,30.18,SSE,158,0.4,0.4,64,0.00,,---,0.00,VWS V14.01,2013-07-19 08:51:00,
2013-07-19 02:56:00,68.8,56.6,30.17,SSE,158,1.6,1.6,65,0.00,,---,0.00,VWS V14.01,2013-07-19 08:56:00,
2013-07-19 03:01:00,68.8,56.6,30.17,South,180,2.0,2.0,65,0.00,,---,0.00,VWS V14.01,2013-07-19 09:01:00,
2013-07-19 03:06:00,68.8,57.0,30.17,South,180,2.0,2.0,66,0.00,,---,0.00,VWS V14.01,2013-07-19 09:06:00,
2013-07-19 03:11:00,68.6,56.8,30.17,South,180,0.0,0.0,66,0.00,,---,0.00,VWS V14.01,2013-07-19 09:11:00,
2013-07-19 03:16:00,68.4,56.6,30.17,South,180,1.8,1.8,66,0.00,,---,0.00,VWS V14.01,2013-07-19 09:16:00,
2013-07-19 03:21:00,68.2,56.8,30.17,South,180,0.4,0.4,67,0.00,,---,0.00,VWS V14.01,2013-07-19 09:21:00,
2013-07-19 03:26:00,68.0,57.1,30.17,SSE,158,1.1,1.1,68,0.00,,---,0.00,VWS V14.01,2013-07-19 09:26:00,
2013-07-19 03:31:00,68.0,57.5,30.17,SE,135,1.3,1.3,69,0.00,,---,0.00,VWS V14.01,2013-07-19 09:31:00,
2013-07-19 03:36:00,67.9,57.4,30.17,South,180,0.9,0.9,69,0.00,,---,0.00,VWS V14.01,2013-07-19 09:36:00,
2013-07-19 03:41:00,67.9,57.8,30.17,South,180,1.8,1.8,70,0.00,,---,0.00,VWS V14.01,2013-07-19 09:41:00,
2013-07-19 03:46:00,67.9,57.8,30.17,SSE,158,2.0,2.0,70,0.00,,---,0.00,VWS V14.01,2013-07-19 09:46:00,
2013-07-19 03:51:00,67.7,57.6,30.17,SSE,158,1.6,1.6,70,0.00,,---,0.00,VWS V14.01,2013-07-19 09:51:00,
2013-07-19 03:56:00,67.5,57.8,30.17,SSE,158,2.0,2.0,71,0.00,,---,0.00,VWS V14.01,2013-07-19 09:56:00,
2013-07-19 04:01:00,67.5,57.8,30.17,SSE,158,2.0,2.0,71,0.00,,---,0.00,VWS V14.01,2013-07-19 10:01:00,
2013-07-19 04:06:00,67.5,57.8,30.16,SSE,158,1.3,1.3,71,0.00,,---,0.00,VWS V14.01,2013-07-19 10:06:00,
2013-07-19 04:11:00,67.3,57.6,30.17,SSE,158,0.4,0.4,71,0.00,,---,0.00,VWS V14.01,2013-07-19 10:11:00,
2013-07-19 04:16:00,67.3,58.0,30.16,SSW,202,2.7,2.7,72,0.00,,---,0.00,VWS V14.01,2013-07-19 10:16:00,
2013-07-19 04:21:00,67.3,58.0,30.17,SSE,158,2.2,2.2,72,0.00,,---,0.00,VWS V14.01,2013-07-19 10:21:00,
2013-07-19 04:26:00,67.3,58.0,30.16,SSE,158,0.0,0.0,72,0.00,,---,0.00,VWS V14.01,2013-07-19 10:26:00,
2013-07-19 04:31:00,67.3,58.0,30.16,SSE,158,2.2,2.2,72,0.00,,---,0.00,VWS V14.01,2013-07-19 10:31:00,
2013-07-19 04:36:00,67.1,57.8,30.17,SSE,158,0.4,0.4,72,0.00,,---,0.00,VWS V14.01,2013-07-19 10:36:00,
2013-07-19 04:41:00,67.1,57.8,30.16,SSE,158,1.1,1.1,72,0.00,,---,0.00,VWS V14.01,2013-07-19 10:41:00,
2013-07-19 04:46:00,67.1,58.2,30.17,SE,135,1.8,1.8,73,0.00,,---,0.00,VWS V14.01,2013-07-19 10:46:00,
2013-07-19 04:51:00,67.0,58.1,30.16,SE,135,0.9,0.9,73,0.00,,---,0.00,VWS V14.01,2013-07-19 10:51:00,
2013-07-19 04:56:00,67.0,58.1,30.17,SSE,158,0.9,0.9,73,0.00,,---,0.00,VWS V14.01,2013-07-19 10:56:00,
2013-07-19 05:01:00,67.0,58.1,30.16,SSE,158,1.1,1.1,73,0.00,,---,0.00,VWS V14.01,2013-07-19 11:01:00,
2013-07-19 05:06:00,67.1,58.2,30.17,SSE,158,1.6,1.6,73,0.00,,---,0.00,VWS V14.01,2013-07-19 11:06:00,
2013-07-19 05:11:00,67.3,58.0,30.17,South,180,3.6,3.6,72,0.00,,---,0.31,VWS V14.01,2013-07-19 11:11:00,
2013-07-19 05:16:00,67.3,57.6,30.17,SSE,158,0.7,0.7,71,0.00,,---,0.00,VWS V14.01,2013-07-19 11:16:00,
2013-07-19 05:21:00,67.3,57.6,30.17,SSE,158,0.4,2.0,71,0.00,,---,0.00,VWS V14.01,2013-07-19 11:21:00,
2013-07-19 05:26:00,67.3,57.6,30.17,South,180,2.0,2.0,71,0.00,,---,0.00,VWS V14.01,2013-07-19 11:26:00,
2013-07-19 05:31:00,67.5,57.4,30.17,SSE,158,0.2,0.2,70,0.00,,---,0.00,VWS V14.01,2013-07-19 11:31:00,
2013-07-19 05:36:00,67.3,57.6,30.17,SSE,158,0.4,0.4,71,0.00,,---,0.00,VWS V14.01,2013-07-19 11:36:00,
2013-07-19 05:41:00,67.0,58.5,30.17,SW,225,0.0,0.0,74,0.00,,---,0.00,VWS V14.01,2013-07-19 11:41:00,
2013-07-19 05:46:00,66.6,58.1,30.17,SSE,158,1.8,1.8,74,0.01,,---,0.01,VWS V14.01,2013-07-19 11:46:00,
2013-07-19 05:51:00,66.2,57.7,30.18,SSE,158,0.0,0.0,74,0.01,,---,0.01,VWS V14.01,2013-07-19 11:51:00,
2013-07-19 05:56:00,65.9,57.8,30.17,SSE,158,0.0,0.0,75,0.01,,---,0.01,VWS V14.01,2013-07-19 11:56:00,
2013-07-19 06:01:00,65.7,58.3,30.18,ENE,68,1.1,1.1,77,0.01,,---,0.01,VWS V14.01,2013-07-19 12:01:00,
2013-07-19 06:06:00,65.5,58.8,30.18,ENE,68,0.0,0.0,79,0.02,,---,0.02,VWS V14.01,2013-07-19 12:06:00,
2013-07-19 06:11:00,65.3,58.6,30.17,ENE,68,0.0,0.0,79,0.02,,---,0.02,VWS V14.01,2013-07-19 12:11:00,
2013-07-19 06:16:00,65.0,58.7,30.18,ENE,68,0.0,0.0,80,0.02,,---,0.02,VWS V14.01,2013-07-19 12:16:00,
2013-07-19 06:21:00,65.0,60.0,30.17,East,90,1.1,1.1,84,0.02,,---,0.02,VWS V14.01,2013-07-19 12:21:00,
2013-07-19 06:26:00,65.0,60.0,30.18,East,90,0.9,0.9,84,0.03,,---,0.03,VWS V14.01,2013-07-19 12:26:00,
2013-07-19 06:31:00,65.2,60.2,30.18,ENE,68,1.6,1.6,84,0.03,,---,0.03,VWS V14.01,2013-07-19 12:31:00,
2013-07-19 06:36:00,65.2,60.2,30.17,NE,45,0.9,0.9,84,0.03,,---,0.03,VWS V14.01,2013-07-19 12:36:00,
2013-07-19 06:41:00,65.2,60.2,30.17,ENE,68,0.9,0.9,84,0.03,,---,0.03,VWS V14.01,2013-07-19 12:41:00,
2013-07-19 06:46:00,65.2,60.6,30.17,NE,45,1.8,1.8,85,0.02,,---,0.03,VWS V14.01,2013-07-19 12:46:00,
2013-07-19 06:51:00,65.3,60.7,30.17,NE,45,1.1,1.1,85,0.02,,---,0.03,VWS V14.01,2013-07-19 12:51:00,
2013-07-19 06:56:00,65.7,61.1,30.17,NE,45,1.1,1.1,85,0.03,,---,0.04,VWS V14.01,2013-07-19 12:56:00,
2013-07-19 07:01:00,65.9,61.3,30.17,NE,45,0.0,0.0,85,0.03,,---,0.04,VWS V14.01,2013-07-19 13:01:00,
2013-07-19 07:06:00,65.9,60.9,30.17,NE,45,0.0,0.0,84,0.02,,---,0.04,VWS V14.01,2013-07-19 13:06:00,
2013-07-19 07:11:00,66.1,61.1,30.17,NE,45,0.0,0.0,84,0.02,,---,0.04,VWS V14.01,2013-07-19 13:11:00,
2013-07-19 07:16:00,66.1,60.8,30.17,NE,45,0.9,0.9,83,0.02,,---,0.04,VWS V14.01,2013-07-19 13:16:00,
2013-07-19 07:21:00,66.2,60.9,30.17,NE,45,0.0,0.0,83,0.02,,---,0.04,VWS V14.01,2013-07-19 13:21:00,
2013-07-19 07:26:00,66.2,60.5,30.18,NE,45,0.0,0.0,82,0.01,,---,0.04,VWS V14.01,2013-07-19 13:26:00,
2013-07-19 07:31:00,66.2,60.5,30.18,NE,45,0.0,0.0,82,0.01,,---,0.04,VWS V14.01,2013-07-19 13:31:00,
2013-07-19 07:36:00,66.1,60.1,30.18,NE,45,0.0,0.0,81,0.01,,---,0.04,VWS V14.01,2013-07-19 13:36:00,
2013-07-19 07:41:00,66.2,60.2,30.18,NE,45,0.0,0.0,81,0.01,,---,0.04,VWS V14.01,2013-07-19 13:41:00,
2013-07-19 07:46:00,66.4,60.4,30.18,NE,45,0.4,0.4,81,0.01,,---,0.04,VWS V14.01,2013-07-19 13:46:00,
2013-07-19 07:51:00,66.4,60.4,30.18,NE,45,0.0,0.0,81,0.01,,---,0.04,VWS V14.01,2013-07-19 13:51:00,
2013-07-19 07:56:00,67.1,61.1,30.19,NE,45,0.0,0.0,81,0.00,,---,0.04,VWS V14.01,2013-07-19 13:56:00,
2013-07-19 08:01:00,68.9,62.5,30.19,NNW,338,0.0,0.0,80,0.00,,---,0.04,VWS V14.01,2013-07-19 14:01:00,
2013-07-19 08:06:00,70.0,61.7,30.19,NNW,338,0.0,0.0,75,0.00,,---,0.04,VWS V14.01,2013-07-19 14:06:00,
2013-07-19 08:11:00,70.2,61.2,30.18,NNW,338,0.0,0.0,73,0.00,,---,0.04,VWS V14.01,2013-07-19 14:11:00,
2013-07-19 08:16:00,70.0,60.6,30.19,NNW,338,0.0,0.0,72,0.00,,---,0.04,VWS V14.01,2013-07-19 14:16:00,
2013-07-19 08:21:00,69.5,60.1,30.19,NNW,338,0.0,0.0,72,0.00,,---,0.04,VWS V14.01,2013-07-19 14:21:00,
2013-07-19 08:26:00,69.5,60.5,30.19,NNW,338,0.0,0.0,73,0.00,,---,0.04,VWS V14.01,2013-07-19 14:26:00,
2013-07-19 08:31:00,71.6,62.1,30.18,NNE,22,0.0,0.0,72,0.00,,---,0.04,VWS V14.01,2013-07-19 14:31:00,
2013-07-19 08:36:00,72.2,61.9,30.19,NNW,338,0.4,0.4,70,0.00,,---,0.04,VWS V14.01,2013-07-19 14:36:00,
2013-07-19 08:41:00,72.5,60.9,30.19,North,0,0.9,0.9,67,0.00,,---,0.04,VWS V14.01,2013-07-19 14:41:00,
2013-07-19 08:46:00,72.7,61.1,30.19,ENE,68,0.4,0.4,67,0.00,,---,0.31,VWS V14.01,2013-07-19 14:46:00,
2013-07-19 08:51:00,72.5,60.9,30.19,ENE,68,0.2,0.2,67,0.00,,---,0.04,VWS V14.01,2013-07-19 14:51:00,
2013-07-19 08:56:00,74.7,61.7,30.19,SSE,158,2.5,2.5,64,0.00,,---,0.04,VWS V14.01,2013-07-19 14:56:00,
2013-07-19 09:01:00,73.8,60.0,30.19,SW,225,1.1,1.1,62,0.00,,---,0.04,VWS V14.01,2013-07-19 15:01:00,
2013-07-19 09:06:00,74.0,61.5,30.19,SW,225,0.0,0.0,65,0.00,,---,0.04,VWS V14.01,2013-07-19 15:06:00,
2013-07-19 09:11:00,74.7,59.4,30.19,SW,225,0.4,0.4,59,0.00,,---,0.04,VWS V14.01,2013-07-19 15:11:00,
2013-07-19 09:16:00,75.4,60.1,30.19,South,180,0.4,0.4,59,0.00,,---,0.04,VWS V14.01,2013-07-19 15:16:00,
2013-07-19 09:21:00,75.8,59.5,30.18,SW,225,0.7,0.7,57,0.00,,---,0.04,VWS V14.01,2013-07-19 15:21:00,
2013-07-19 09:26:00,76.7,60.3,30.18,ESE,112,0.4,0.4,57,0.00,,---,0.04,VWS V14.01,2013-07-19 15:26:00,
2013-07-19 09:31:00,77.4,60.0,30.18,SSE,158,1.8,1.8,55,0.00,,---,0.04,VWS V14.01,2013-07-19 15:31:00,
2013-07-19 09:36:00,77.9,61.0,30.18,SW,225,0.2,0.2,56,0.00,,---,0.04,VWS V14.01,2013-07-19 15:36:00,
2013-07-19 09:41:00,79.4,60.3,30.19,SW,225,1.1,1.1,52,0.00,,---,0.04,VWS V14.01,2013-07-19 15:41:00,
2013-07-19 09:46:00,77.6,59.7,30.18,South,180,1.8,1.8,54,0.00,,---,0.04,VWS V14.01,2013-07-19 15:46:00,
2013-07-19 09:51:00,78.1,60.1,30.17,SE,135,0.2,0.2,54,0.00,,---,0.04,VWS V14.01,2013-07-19 15:51:00,
2013-07-19 09:56:00,78.8,59.7,30.17,South,180,0.7,0.7,52,0.00,,---,0.04,VWS V14.01,2013-07-19 15:56:00,
2013-07-19 10:01:00,79.6,59.3,30.17,WSW,248,1.6,1.6,50,0.00,,---,0.04,VWS V14.01,2013-07-19 16:01:00,
2013-07-19 10:06:00,79.2,59.5,30.17,SSE,158,1.1,1.1,51,0.00,,---,0.04,VWS V14.01,2013-07-19 16:06:00,
2013-07-19 10:11:00,79.4,59.2,30.17,SW,225,2.7,2.7,50,0.00,,---,0.04,VWS V14.01,2013-07-19 16:11:00,
2013-07-19 10:16:00,78.1,58.5,30.17,WSW,248,1.1,1.1,51,0.00,,---,0.04,VWS V14.01,2013-07-19 16:16:00,
2013-07-19 10:21:00,78.5,58.9,30.17,WSW,248,4.7,4.7,51,0.00,,---,0.04,VWS V14.01,2013-07-19 16:21:00,
2013-07-19 10:26:00,77.4,58.4,30.17,WSW,248,0.7,0.7,52,0.00,,---,0.04,VWS V14.01,2013-07-19 16:26:00,
2013-07-19 10:31:00,78.7,59.1,30.17,WSW,248,0.2,0.2,51,0.00,,---,0.04,VWS V14.01,2013-07-19 16:31:00,
2013-07-19 10:36:00,79.2,57.8,30.17,WSW,248,2.2,2.2,48,0.00,,---,0.04,VWS V14.01,2013-07-19 16:36:00,
2013-07-19 10:41:00,78.1,58.0,30.16,SW,225,0.4,0.4,50,0.00,,---,0.04,VWS V14.01,2013-07-19 16:41:00,
2013-07-19 10:46:00,79.2,57.8,30.16,ESE,112,2.7,2.7,48,0.00,,---,0.04,VWS V14.01,2013-07-19 16:46:00,
2013-07-19 10:51:00,79.6,58.2,30.16,SW,225,0.9,0.9,48,0.00,,---,0.04,VWS V14.01,2013-07-19 16:51:00,
2013-07-19 10:56:00,79.7,58.3,30.16,East,90,0.9,0.9,48,0.00,,---,0.04,VWS V14.01,2013-07-19 16:56:00,
2013-07-19 11:01:00,79.9,57.9,30.15,WSW,248,6.5,6.5,47,0.00,,---,0.04,VWS V14.01,2013-07-19 17:01:00,
2013-07-19 11:06:00,79.0,58.8,30.16,WSW,248,1.1,1.1,50,0.00,,---,0.04,VWS V14.01,2013-07-19 17:06:00,
2013-07-19 11:11:00,78.8,58.0,30.15,NNW,338,0.7,0.7,49,0.00,,---,0.04,VWS V14.01,2013-07-19 17:11:00,
2013-07-19 11:16:00,80.6,58.5,30.15,NNW,338,1.1,1.1,47,0.00,,---,0.04,VWS V14.01,2013-07-19 17:16:00,
2013-07-19 11:21:00,80.6,57.9,30.16,NW,315,3.1,3.1,46,0.00,,---,0.04,VWS V14.01,2013-07-19 17:21:00,
2013-07-19 11:26:00,80.1,58.7,30.15,WSW,248,2.0,2.0,48,0.00,,---,0.04,VWS V14.01,2013-07-19 17:26:00,
2013-07-19 11:31:00,80.3,58.8,30.15,West,270,1.6,1.6,48,0.00,,---,0.04,VWS V14.01,2013-07-19 17:31:00,
2013-07-19 11:36:00,80.3,58.2,30.15,SW,225,2.5,2.5,47,0.00,,---,0.04,VWS V14.01,2013-07-19 17:36:00,
2013-07-19 11:41:00,80.5,58.4,30.15,SSW,202,2.2,2.2,47,0.00,,---,0.04,VWS V14.01,2013-07-19 17:41:00,
2013-07-19 11:46:00,81.0,58.3,30.15,SW,225,0.9,0.9,46,0.00,,---,0.04,VWS V14.01,2013-07-19 17:46:00,
2013-07-19 11:51:00,81.0,58.3,30.15,West,270,3.4,3.4,46,0.00,,---,0.04,VWS V14.01,2013-07-19 17:51:00,
2013-07-19 11:56:00,81.4,58.7,30.15,NNW,338,2.9,2.9,46,0.00,,---,0.04,VWS V14.01,2013-07-19 17:56:00,
2013-07-19 12:01:00,82.3,58.9,30.15,SW,225,1.8,1.8,45,0.00,,---,0.04,VWS V14.01,2013-07-19 18:01:00,
2013-07-19 12:06:00,81.7,58.3,30.14,SW,225,0.9,0.9,45,0.00,,---,0.04,VWS V14.01,2013-07-19 18:06:00,
2013-07-19 12:11:00,82.4,59.0,30.14,SSW,202,2.0,2.0,45,0.00,,---,0.04,VWS V14.01,2013-07-19 18:11:00,
2013-07-19 12:16:00,81.9,58.5,30.14,SW,225,0.9,0.9,45,0.00,,---,0.04,VWS V14.01,2013-07-19 18:16:00,
2013-07-19 12:21:00,83.0,58.9,30.14,NW,315,2.5,2.5,44,0.00,,---,0.04,VWS V14.01,2013-07-19 18:21:00,
2013-07-19 12:26:00,83.9,59.0,30.13,NE,45,1.1,1.1,43,0.00,,---,0.04,VWS V14.01,2013-07-19 18:26:00,
2013-07-19 12:31:00,84.4,58.8,30.13,WNW,292,2.9,2.9,42,0.00,,---,0.04,VWS V14.01,2013-07-19 18:31:00,
2013-07-19 12:36:00,82.8,58.7,30.13,ESE,112,2.0,2.0,44,0.00,,---,0.31,VWS V14.01,2013-07-19 18:36:00,
2013-07-19 12:41:00,83.5,58.7,30.13,SW,225,2.5,2.5,43,0.00,,---,0.04,VWS V14.01,2013-07-19 18:41:00,
2013-07-19 12:46:00,82.8,58.7,30.13,West,270,0.9,0.9,44,0.00,,---,0.04,VWS V14.01,2013-07-19 18:46:00,
2013-07-19 12:51:00,83.2,59.0,30.13,NW,315,2.5,2.5,44,0.00,,---,0.04,VWS V14.01,2013-07-19 18:51:00,
2013-07-19 12:56:00,83.2,59.0,30.12,SW,225,5.1,5.1,44,0.00,,---,0.04,VWS V14.01,2013-07-19 18:56:00,
2013-07-19 13:01:00,83.2,59.0,30.12,SSW,202,1.3,1.3,44,0.00,,---,0.04,VWS V14.01,2013-07-19 19:01:00,
2013-07-19 13:06:00,83.3,59.1,30.12,WNW,292,3.1,3.1,44,0.00,,---,0.04,VWS V14.01,2013-07-19 19:06:00,
2013-07-19 13:11:00,83.9,58.4,30.12,SW,225,0.7,0.7,42,0.00,,---,0.04,VWS V14.01,2013-07-19 19:11:00,
2013-07-19 13:16:00,84.2,58.6,30.12,WSW,248,2.0,2.0,42,0.00,,---,0.04,VWS V14.01,2013-07-19 19:16:00,
2013-07-19 13:21:00,84.1,58.5,30.12,SW,225,1.8,1.8,42,0.00,,---,0.04,VWS V14.01,2013-07-19 19:21:00,
2013-07-19 13:26:00,84.2,58.6,30.11,SE,135,1.8,1.8,42,0.00,,---,0.04,VWS V14.01,2013-07-19 19:26:00,
2013-07-19 13:31:00,84.4,58.2,30.11,SW,225,4.7,4.7,41,0.00,,---,0.04,VWS V14.01,2013-07-19 19:31:00,
2013-07-19 13:36:00,85.3,59.0,30.11,SW,225,1.8,1.8,41,0.00,,---,0.04,VWS V14.01,2013-07-19 19:36:00,
2013-07-19 13:41:00,86.2,58.4,30.10,West,270,3.1,3.1,39,0.00,,---,0.04,VWS V14.01,2013-07-19 19:41:00,
2013-07-19 13:46:00,86.0,58.2,30.10,WSW,248,6.3,6.3,39,0.00,,---,0.04,VWS V14.01,2013-07-19 19:46:00,
2013-07-19 13:51:00,86.4,59.9,30.10,West,270,1.6,1.6,41,0.00,,---,0.04,VWS V14.01,2013-07-19 19:51:00,
2013-07-19 13:56:00,86.4,58.5,30.10,South,180,1.6,1.6,39,0.00,,---,0.04,VWS V14.01,2013-07-19 19:56:00,
2013-07-19 14:01:00,86.8,58.9,30.10,WSW,248,3.4,3.4,39,0.00,,---,0.04,VWS V14.01,2013-07-19 20:01:00,
2013-07-19 14:06:00,86.0,58.2,30.09,South,180,7.6,7.6,39,0.00,,---,0.04,VWS V14.01,2013-07-19 20:06:00,
2013-07-19 14:11:00,86.0,59.6,30.09,SW,225,3.4,3.4,41,0.00,,---,0.04,VWS V14.01,2013-07-19 20:11:00,
2013-07-19 14:16:00,85.5,58.5,30.09,WSW,248,1.6,1.6,40,0.00,,---,0.04,VWS V14.01,2013-07-19 20:16:00,
2013-07-19 14:21:00,86.0,60.3,30.09,WSW,248,4.0,4.0,42,0.00,,---,0.04,VWS V14.01,2013-07-19 20:21:00,
2013-07-19 14:26:00,86.2,58.4,30.09,SW,225,6.3,6.3,39,0.00,,---,0.04,VWS V14.01,2013-07-19 20:26:00,
2013-07-19 14:31:00,86.0,59.6,30.09,WSW,248,4.5,4.5,41,0.00,,---,0.04,VWS V14.01,2013-07-19 20:31:00,
2013-07-19 14:36:00,86.6,58.7,30.08,WSW,248,4.9,4.9,39,0.00,,---,0.04,VWS V14.01,2013-07-19 20:36:00,
2013-07-19 14:41:00,85.7,57.9,30.08,WSW,248,7.4,7.4,39,0.00,,---,0.04,VWS V14.01,2013-07-19 20:41:00,
2013-07-19 14:46:00,85.3,58.3,30.08,SW,225,5.6,5.6,40,0.00,,---,0.04,VWS V14.01,2013-07-19 20:46:00,
2013-07-19 14:51:00,85.9,58.8,30.08,SW,225,6.9,6.9,40,0.00,,---,0.04,VWS V14.01,2013-07-19 20:51:00,
2013-07-19 14:56:00,86.0,59.6,30.07,WNW,292,4.0,4.0,41,0.00,,---,0.04,VWS V14.01,2013-07-19 20:56:00,
2013-07-19 15:01:00,85.9,58.8,30.07,WSW,248,9.2,9.2,40,0.00,,---,0.04,VWS V14.01,2013-07-19 21:01:00,
2013-07-19 15:06:00,85.5,58.5,30.07,SW,225,2.0,2.0,40,0.00,,---,0.04,VWS V14.01,2013-07-19 21:06:00,
2013-07-19 15:11:00,86.6,58.7,30.07,WNW,292,5.4,5.4,39,0.00,,---,0.04,VWS V14.01,2013-07-19 21:11:00,
2013-07-19 15:16:00,86.8,58.2,30.07,SW,225,2.7,2.7,38,0.00,,---,0.04,VWS V14.01,2013-07-19 21:16:00,
2013-07-19 15:21:00,86.8,58.9,30.06,WNW,292,1.6,1.6,39,0.00,,---,0.04,VWS V14.01,2013-07-19 21:21:00,
2013-07-19 15:26:00,86.2,58.4,30.06,SW,225,2.0,2.0,39,0.00,,---,0.04,VWS V14.01,2013-07-19 21:26:00,
2013-07-19 15:31:00,84.8,58.5,30.07,WNW,292,4.0,4.0,41,0.00,,---,0.04,VWS V14.01,2013-07-19 21:31:00,
2013-07-19 15:36:00,83.5,58.7,30.06,WSW,248,2.2,2.2,43,0.00,,---,0.04,VWS V14.01,2013-07-19 21:36:00,
2013-07-19 15:41:00,83.0,61.3,30.05,West,270,2.9,2.9,48,0.00,,---,0.04,VWS V14.01,2013-07-19 21:41:00,
2013-07-19 15:46:00,82.1,61.6,30.05,WSW,248,4.3,4.3,50,0.00,,---,0.04,VWS V14.01,2013-07-19 21:46:00,
2013-07-19 15:51:00,82.3,60.7,30.05,NW,315,6.3,6.3,48,0.00,,---,0.04,VWS V14.01,2013-07-19 21:51:00,
2013-07-19 15:56:00,81.9,62.0,30.05,North,0,3.4,3.4,51,0.00,,---,0.04,VWS V14.01,2013-07-19 21:56:00,
2013-07-19 16:01:00,79.2,62.2,30.06,NNE,22,15.7,15.7,56,0.00,,---,0.04,VWS V14.01,2013-07-19 22:01:00,
2013-07-19 16:06:00,72.2,61.1,30.07,North,0,20.6,20.6,68,0.00,,---,0.04,VWS V14.01,2013-07-19 22:06:00,
2013-07-19 16:11:00,68.9,58.7,30.09,NNE,22,12.8,12.8,70,0.00,,---,0.04,VWS V14.01,2013-07-19 22:11:00,
2013-07-19 16:16:00,64.8,58.1,30.09,NE,45,13.4,13.4,79,0.00,,---,0.04,VWS V14.01,2013-07-19 22:16:00,
2013-07-19 16:21:00,62.1,56.2,30.08,ENE,68,21.9,21.9,81,0.12,,---,0.16,VWS V14.01,2013-07-19 22:21:00,
2013-07-19 16:26:00,59.2,54.0,30.10,SE,135,5.4,5.4,83,0.43,,---,0.46,VWS V14.01,2013-07-19 22:26:00,
2013-07-19 16:31:00,59.4,55.5,30.10,ESE,112,2.5,2.5,87,0.59,,---,0.63,VWS V14.01,2013-07-19 22:31:00,
2013-07-19 16:36:00,59.9,56.0,30.09,SSE,158,0.7,0.7,87,0.62,,---,0.66,VWS V14.01,2013-07-19 22:36:00,
2013-07-19 16:40:00,60.7,57.1,30.09,SE,135,2.2,2.2,88,0.63,,---,0.67,VWS V14.01,2013-07-19 22:40:00,
2013-07-19 16:45:00,61.2,57.9,30.09,SE,135,2.9,2.9,89,0.64,,---,0.68,VWS V14.01,2013-07-19 22:45:00,
2013-07-19 16:50:00,61.9,57.3,30.08,SE,135,1.6,1.6,85,0.64,,---,0.68,VWS V14.01,2013-07-19 22:50:00,
2013-07-19 16:55:00,62.3,57.7,30.07,East,90,2.0,2.0,85,0.64,,---,0.68,VWS V14.01,2013-07-19 22:55:00,
2013-07-19 17:00:00,62.5,57.9,30.07,SE,135,1.3,1.3,85,0.64,,---,0.68,VWS V14.01,2013-07-19 23:00:00,
2013-07-19 17:05:00,62.8,58.6,30.06,ESE,112,0.9,0.9,86,0.64,,---,0.68,VWS V14.01,2013-07-19 23:05:00,
2013-07-19 17:10:00,63.4,59.2,30.06,ENE,68,0.0,0.0,86,0.65,,---,0.69,VWS V14.01,2013-07-19 23:10:00,
2013-07-19 17:15:00,63.9,60.0,30.06,South,180,1.1,1.1,87,0.65,,---,0.69,VWS V14.01,2013-07-19 23:15:00,
2013-07-19 17:20:00,64.4,59.8,30.06,SSW,202,0.4,0.4,85,0.53,,---,0.69,VWS V14.01,2013-07-19 23:20:00,
2013-07-19 17:25:00,64.6,59.7,30.06,SSE,158,0.0,0.0,84,0.22,,---,0.69,VWS V14.01,2013-07-19 23:25:00,
2013-07-19 17:30:00,65.2,60.6,30.06,SSE,158,0.9,0.9,85,0.06,,---,0.69,VWS V14.01,2013-07-19 23:30:00,
2013-07-19 17:35:00,65.7,61.1,30.06,SE,135,1.8,1.8,85,0.03,,---,0.69,VWS V14.01,2013-07-19 23:35:00,
2013-07-19 17:40:00,66.4,60.7,30.05,SE,135,1.3,1.3,82,0.02,,---,0.69,VWS V14.01,2013-07-19 23:40:00,
2013-07-19 17:45:00,67.0,61.7,30.05,ESE,112,1.1,1.1,83,0.01,,---,0.69,VWS V14.01,2013-07-19 23:45:00,
2013-07-19 17:50:00,67.9,62.5,30.05,East,90,2.7,2.7,83,0.01,,---,0.69,VWS V14.01,2013-07-19 23:50:00,
2013-07-19 17:55:00,68.4,62.7,30.05,ESE,112,0.4,0.4,82,0.01,,---,0.69,VWS V14.01,2013-07-19 23:55:00,
2013-07-19 18:00:00,68.8,62.7,30.06,SE,135,2.2,2.2,81,0.01,,---,0.69,VWS V14.01,2013-07-20 00:00:00,
2013-07-19 18:05:00,69.1,63.4,30.04,SE,135,0.0,0.0,82,0.01,,---,0.69,VWS V14.01,2013-07-20 00:05:00,
2013-07-19 18:10:00,69.7,63.6,30.05,SSE,158,0.0,0.0,81,0.00,,---,0.69,VWS V14.01,2013-07-20 00:10:00,
2013-07-19 18:15:00,69.8,63.7,30.06,SSE,158,0.4,0.4,81,0.00,,---,0.69,VWS V14.01,2013-07-20 00:15:00,
2013-07-19 18:20:00,70.4,63.9,30.05,SSW,202,0.0,0.0,80,0.00,,---,0.69,VWS V14.01,2013-07-20 00:20:00,
2013-07-19 18:25:00,70.7,64.6,30.05,WNW,292,1.6,1.6,81,0.00,,---,0.69,VWS V14.01,2013-07-20 00:25:00,
2013-07-19 18:30:00,70.6,64.1,30.05,NW,315,0.7,0.7,80,0.00,,---,0.69,VWS V14.01,2013-07-20 00:30:00,
2013-07-19 18:35:00,70.9,65.1,30.05,NW,315,1.1,1.1,82,0.00,,---,0.69,VWS V14.01,2013-07-20 00:35:00,
2013-07-19 18:40:00,70.9,64.4,30.04,NW,315,1.1,1.1,80,0.00,,---,0.69,VWS V14.01,2013-07-20 00:40:00,
2013-07-19 18:45:00,71.1,64.6,30.05,NW,315,0.4,0.4,80,0.00,,---,0.69,VWS V14.01,2013-07-20 00:45:00,
2013-07-19 18:50:00,71.3,64.1,30.05,NE,45,2.0,2.0,78,0.00,,---,0.69,VWS V14.01,2013-07-20 00:50:00,
2013-07-19 18:55:00,71.5,64.3,30.04,ENE,68,1.1,1.1,78,0.00,,---,0.69,VWS V14.01,2013-07-20 00:55:00,
2013-07-19 19:00:00,71.5,63.9,30.05,NW,315,0.7,0.7,77,0.00,,---,0.69,VWS V14.01,2013-07-20 01:00:00,
2013-07-19 19:05:00,71.6,64.0,30.05,NNW,338,0.9,0.9,77,0.00,,---,0.69,VWS V14.01,2013-07-20 01:05:00,
2013-07-19 19:10:00,71.8,64.2,30.05,WNW,292,2.0,2.0,77,0.00,,---,0.69,VWS V14.01,2013-07-20 01:10:00,
2013-07-19 19:15:00,71.6,64.4,30.06,NNW,338,0.2,0.2,78,0.00,,---,0.69,VWS V14.01,2013-07-20 01:15:00,
2013-07-19 19:20:00,71.6,63.6,30.06,ENE,68,0.4,0.4,76,0.00,,---,0.69,VWS V14.01,2013-07-20 01:20:00,
2013-07-19 19:25:00,71.6,63.6,30.05,ENE,68,1.1,1.1,76,0.00,,---,0.69,VWS V14.01,2013-07-20 01:25:00,
2013-07-19 19:30:00,71.8,63.8,30.06,SW,225,0.4,0.4,76,0.00,,---,0.69,VWS V14.01,2013-07-20 01:30:00,
2013-07-19 19:35:00,71.8,63.8,30.05,SW,225,0.7,0.7,76,0.00,,---,0.69,VWS V14.01,2013-07-20 01:35:00,
2013-07-19 19:40:00,71.8,63.8,30.05,SW,225,0.0,0.0,76,0.00,,---,0.69,VWS V14.01,2013-07-20 01:40:00,
2013-07-19 19:45:00,71.6,63.6,30.06,SW,225,0.7,0.7,76,0.00,,---,0.69,VWS V14.01,2013-07-20 01:45:00,
2013-07-19 19:50:00,71.6,64.0,30.05,SW,225,0.0,0.0,77,0.00,,---,0.69,VWS V14.01,2013-07-20 01:50:00,
2013-07-19 19:55:00,71.6,64.0,30.05,SW,225,0.0,0.0,77,0.00,,---,0.69,VWS V14.01,2013-07-20 01:55:00,
2013-07-19 20:00:00,71.3,63.7,30.05,SW,225,0.0,0.0,77,0.00,,---,0.69,VWS V14.01,2013-07-20 02:00:00,
2013-07-19 20:05:00,71.1,63.9,30.05,WSW,248,0.7,0.7,78,0.00,,---,0.69,VWS V14.01,2013-07-20 02:05:00,
2013-07-19 20:10:00,70.9,63.7,30.06,NNW,338,0.0,0.0,78,0.00,,---,0.69,VWS V14.01,2013-07-20 02:10:00,
2013-07-19 20:15:00,70.9,64.1,30.06,NE,45,0.7,0.7,79,0.00,,---,0.69,VWS V14.01,2013-07-20 02:15:00,
2013-07-19 20:20:00,70.7,63.9,30.06,ENE,68,0.4,0.4,79,0.00,,---,0.69,VWS V14.01,2013-07-20 02:20:00,
2013-07-19 20:25:00,70.6,63.8,30.06,ESE,112,1.3,1.3,79,0.00,,---,0.69,VWS V14.01,2013-07-20 02:25:00,
2013-07-19 20:30:00,70.4,63.6,30.07,ESE,112,0.0,0.0,79,0.00,,---,0.69,VWS V14.01,2013-07-20 02:30:00,
2013-07-19 20:35:00,70.2,63.4,30.07,ESE,112,0.0,0.0,79,0.00,,---,0.69,VWS V14.01,2013-07-20 02:35:00,
2013-07-19 20:40:00,70.2,63.8,30.07,ESE,112,0.7,0.7,80,0.00,,---,0.69,VWS V14.01,2013-07-20 02:40:00,
2013-07-19 20:45:00,70.2,63.8,30.07,ESE,112,0.4,0.4,80,0.00,,---,0.69,VWS V14.01,2013-07-20 02:45:00,
2013-07-19 20:50:00,70.2,64.1,30.07,NE,45,1.8,1.8,81,0.00,,---,0.69,VWS V14.01,2013-07-20 02:50:00,
2013-07-19 20:55:00,70.2,64.1,30.07,NNW,338,0.4,0.4,81,0.00,,---,0.69,VWS V14.01,2013-07-20 02:55:00,
2013-07-19 21:00:00,70.2,63.8,30.08,NNE,22,0.2,0.2,80,0.00,,---,0.69,VWS V14.01,2013-07-20 03:00:00,
2013-07-19 21:05:00,70.4,63.2,30.08,ENE,68,0.2,0.2,78,0.00,,---,0.69,VWS V14.01,2013-07-20 03:05:00,
2013-07-19 21:10:00,70.4,63.2,30.08,NE,45,1.3,1.3,78,0.00,,---,0.69,VWS V14.01,2013-07-20 03:10:00,
2013-07-19 21:15:00,70.4,62.5,30.09,NE,45,0.4,0.4,76,0.00,,---,0.69,VWS V14.01,2013-07-20 03:15:00,
2013-07-19 21:20:00,70.6,62.7,30.08,NE,45,0.4,0.4,76,0.00,,---,0.69,VWS V14.01,2013-07-20 03:20:00,
2013-07-19 21:25:00,70.6,62.7,30.08,NE,45,0.0,0.0,76,0.00,,---,0.69,VWS V14.01,2013-07-20 03:25:00,
2013-07-19 21:30:00,70.4,62.5,30.09,NE,45,0.0,0.0,76,0.00,,---,0.69,VWS V14.01,2013-07-20 03:30:00,
2013-07-19 21:35:00,70.2,62.7,30.09,ESE,112,0.0,0.0,77,0.00,,---,0.69,VWS V14.01,2013-07-20 03:35:00,
2013-07-19 21:40:00,70.2,62.7,30.09,ESE,112,0.0,0.0,77,0.00,,---,0.69,VWS V14.01,2013-07-20 03:40:00,
2013-07-19 21:45:00,70.4,62.1,30.09,SSW,202,0.4,0.4,75,0.00,,---,0.69,VWS V14.01,2013-07-20 03:45:00,
2013-07-19 21:50:00,70.6,62.3,30.10,SSW,202,0.0,0.0,75,0.00,,---,0.69,VWS V14.01,2013-07-20 03:50:00,
2013-07-19 21:55:00,70.4,62.1,30.10,SSW,202,0.2,0.2,75,0.00,,---,0.69,VWS V14.01,2013-07-20 03:55:00,
2013-07-19 22:00:00,70.4,61.7,30.10,SSE,158,0.2,0.2,74,0.00,,---,0.69,VWS V14.01,2013-07-20 04:00:00,
2013-07-19 22:01:00,70.4,61.7,30.10,SSE,158,0.2,0.2,74,0.00,,---,0.69,VWS V14.01,2013-07-20 04:01:00,
2013-07-19 22:06:00,70.4,61.3,30.10,SSE,158,0.4,0.4,73,0.00,,---,0.69,VWS V14.01,2013-07-20 04:06:00,
2013-07-19 22:11:00,70.7,62.0,30.10,SE,135,0.0,0.0,74,0.00,,---,0.69,VWS V14.01,2013-07-20 04:11:00,
2013-07-19 22:16:00,70.7,62.0,30.10,SE,135,0.0,0.0,74,0.00,,---,0.69,VWS V14.01,2013-07-20 04:16:00,
2013-07-19 22:21:00,70.7,62.0,30.10,SE,135,1.1,1.1,74,0.00,,---,0.69,VWS V14.01,2013-07-20 04:21:00,
2013-07-19 22:26:00,70.7,62.0,30.10,SE,135,0.9,0.9,74,0.00,,---,0.69,VWS V14.01,2013-07-20 04:26:00,
2013-07-19 22:31:00,70.9,62.2,30.10,SE,135,0.0,0.0,74,0.00,,---,0.69,VWS V14.01,2013-07-20 04:31:00,
2013-07-19 22:36:00,70.9,62.2,30.11,SE,135,0.4,0.4,74,0.00,,---,0.69,VWS V14.01,2013-07-20 04:36:00,
2013-07-19 22:41:00,71.1,62.0,30.11,SE,135,0.0,0.0,73,0.00,,---,0.69,VWS V14.01,2013-07-20 04:41:00,
2013-07-19 22:46:00,71.3,62.2,30.11,SE,135,0.0,0.0,73,0.00,,---,0.69,VWS V14.01,2013-07-20 04:46:00,
2013-07-19 22:51:00,71.3,62.2,30.11,SE,135,0.0,0.0,73,0.00,,---,0.69,VWS V14.01,2013-07-20 04:51:00,
2013-07-19 22:56:00,71.1,62.4,30.11,East,90,1.1,1.1,74,0.00,,---,0.69,VWS V14.01,2013-07-20 04:56:00,
2013-07-19 23:01:00,70.7,62.0,30.11,East,90,0.0,0.0,74,0.00,,---,0.69,VWS V14.01,2013-07-20 05:01:00,
2013-07-19 23:06:00,70.7,62.0,30.11,East,90,0.0,0.0,74,0.00,,---,0.69,VWS V14.01,2013-07-20 05:06:00,
2013-07-19 23:11:00,70.7,62.0,30.11,East,90,0.0,0.0,74,0.00,,---,0.69,VWS V14.01,2013-07-20 05:11:00,
2013-07-19 23:16:00,70.6,62.3,30.11,East,90,0.0,0.0,75,0.00,,---,0.69,VWS V14.01,2013-07-20 05:16:00,
2013-07-19 23:21:00,70.2,62.7,30.11,East,90,0.0,0.0,77,0.00,,---,0.69,VWS V14.01,2013-07-20 05:21:00,
2013-07-19 23:26:00,70.2,63.0,30.11,East,90,0.4,0.4,78,0.00,,---,0.69,VWS V14.01,2013-07-20 05:26:00,
2013-07-19 23:31:00,70.2,63.0,30.11,East,90,0.7,0.7,78,0.00,,---,0.69,VWS V14.01,2013-07-20 05:31:00,
2013-07-19 23:36:00,70.2,62.7,30.11,East,90,0.0,0.0,77,0.00,,---,0.69,VWS V14.01,2013-07-20 05:36:00,
2013-07-19 23:41:00,70.4,61.7,30.11,NNE,22,2.2,2.2,74,0.00,,---,0.69,VWS V14.01,2013-07-20 05:41:00,
2013-07-19 23:46:00,70.9,62.2,30.11,NNE,22,0.4,0.4,74,0.00,,---,0.69,VWS V14.01,2013-07-20 05:46:00,
2013-07-19 23:51:00,70.9,61.8,30.11,North,0,2.0,2.0,73,0.00,,---,0.69,VWS V14.01,2013-07-20 05:51:00,
2013-07-19 23:56:00,71.3,61.0,30.12,NNW,338,1.6,1.6,70,0.00,,---,0.69,VWS V14.01,2013-07-20 05:56:00,